Regional Weather Roundup
Issued by NWS

Home | Current Version | Previous Version | Text Only | Print | Product List | Glossary Off
Versions: 1 2 3 4 5 6 7 8 9 10 11 12 13 14 15 16 17 18 19 20 21 22 23 24 25 26 27 28 29 30 31 32 33 34 35 36 37 38 39 40 41 42 43 44 45 46 47 48 49 50

000
ASUS45 KSLC 281010
RWRUT

UTAH REGIONAL WEATHER ROUNDUP
NATIONAL WEATHER SERVICE SALT LAKE CITY UT
300 AM MST WED JAN 28 2015

UTZ001>011-023>025-281100-

NORTHERN UTAH

CITY           SKY/WX    TMP DP  RH WIND       PRES   REMARKS
BRIGHAM CITY   CLOUDY    41  38  89 CALM      30.21R
HILL AFB       CLOUDY    43  35  74 S10       30.19S
LOGAN          CLOUDY    36  35  96 S5        30.18R WCI  32
OGDEN          CLOUDY    42  39  89 SW3       30.19R
PROVO AIRPORT  CLOUDY    39  34  81 CALM      30.23R
SALT LAKE CITY CLOUDY    47  34  60 S8        30.19R
VERNAL         CLEAR     28  24  85 SW3       30.23R
WENDOVER       MOCLDY    34  28  80 CALM      30.21R
HEBER CITY     MOCLDY    41  32  70 SW12      30.21S
WEST JORDAN    MOCLDY    45  36  70 S12       30.20R

$$

UTZ012>022-026-027-281100-

SOUTHERN/CENTRAL UTAH

CITY           SKY/WX    TMP DP  RH WIND       PRES   REMARKS
BLANDING       PTCLDY    36  33  87 NW3       30.34S
BRYCE CANYON   CLEAR     25  22  88 NE5       30.29F WCI  19
CEDAR CITY     PTCLDY    31  29  92 NE6       30.24F WCI  25
DELTA          CLEAR     37  33  84 S9        30.23S WCI  31
MILFORD        CLEAR     36  33  89 SW12      30.24S WCI  28
MOAB/CYNLANDS  CLEAR     29  27  92 SW5       30.24R WCI  24
PRICE          PTCLDY    34  28  79 CALM      30.24S
ST GEORGE      PTSUNNY   45  37  76 CALM      30.26F
KANAB            N/A     32  32 100 NE3       30.31F

$$

REGIONAL REPORTS     COLORADO/ARIZONA

CITY           SKY/WX    TMP DP  RH WIND       PRES   REMARKS
CRAIG, CO      CLOUDY    37  33  85 S13       30.21S WCI  29
GRAND JUNCTION CLEAR     31  26  82 E6        30.25R WCI  25
RIFLE          PTCLDY    30  25  81 CALM      30.26R
MONTROSE       MOCLDY    33  27  78 SE9       30.28R WCI  25
CORTEZ         PTCLDY    30  27  88 E7        30.28S WCI  23
PAGE, AZ       NOT AVBL
GRAND CANYON   PTCLDY    24  22  91 CALM      30.29F
KINGMAN        CLEAR     39  37  92 CALM      30.24R
FLAGSTAFF      FOG       27  25  92 CALM      30.29S VSB 1/2

$$

REGIONAL REPORTS    NEVADA/IDAHO/WYOMING

CITY           SKY/WX    TMP DP  RH WIND       PRES   REMARKS
LAS VEGAS, NV  PTCLDY    51  44  77 SW10      30.20R
ELY            LGT RAIN  37  35  92 CALM      30.27R
ELKO           CLOUDY    39  36  89 SW8       30.25R WCI  33
POCATELLO, ID  LGT RAIN  40  40 100 SW10      30.18R WCI  33
BURLEY         CLOUDY    40  38  93 W10       30.18R WCI  33
EVANSTON, WY   MOCLDY    33  31  92 SW10      30.19F WCI  25
ROCK SPRINGS   CLOUDY    33  28  81 W8        30.18R WCI  26
KEMMERER       FLURRIES  32  32 100 SW6       30.18R WCI  26

$$



USA.gov is the U.S. government's official web portal to all federal, state and local government web resources and services.